Torna al catalogo

CZ-6A DEB

AttivoSSO
NORAD 56621·DEBRIS·🇨🇳 China

Lanciato Nov 11, 2022 da Taiyuan Satellite Launch Center

Loading…

Prossimi Passaggi (prossime 24 ore)

TLE

AggiornatoSource: Space-Track

Epoca: Sep 14, 2026, 09:18 UTC

1 56621U 22151AEV 26257.38754503  .00000975  00000-0  68895-3 0  9998
2 56621  98.9373 231.0807 0113656 184.0235 176.0025 13.97154560177734

Traccia CZ-6A DEB in tempo reale con AllMySat

Download on the App Store